Time,TemperatureF,DewpointF,PressureIn,WindDirection,WindDirectionDegrees,WindSpeedMPH,WindSpeedGustMPH,Humidity,HourlyPrecipIn,Conditions,Clouds,dailyrainin,SoftwareType,DateUTC
2013-11-20 00:01:00,32.9,23.9,30.35,SE,135,1.0,6.0,69,0.00,CLR,OVC,0.00,WeatherDisplay:10.37,2013-11-20 05:01:00,
2013-11-20 00:06:00,32.9,24.2,30.35,SE,130,1.0,5.0,70,0.00,CLR,OVC,0.00,WeatherDisplay:10.37,2013-11-20 05:06:00,
2013-11-20 00:11:00,32.8,23.7,30.35,ESE,122,1.0,3.0,69,0.00,CLR,OVC,0.00,WeatherDisplay:10.37,2013-11-20 05:11:00,
2013-11-20 00:16:00,32.7,24.0,30.35,SE,124,2.0,4.0,70,0.00,CLR,OVC,0.00,WeatherDisplay:10.37,2013-11-20 05:16:00,
2013-11-20 00:21:00,32.7,24.0,30.35,SE,129,1.0,4.0,70,0.00,CLR,OVC,0.00,WeatherDisplay:10.37,2013-11-20 05:21:00,
2013-11-20 00:26:00,32.6,23.9,30.35,SE,133,1.0,6.0,70,0.00,CLR,OVC,0.00,WeatherDisplay:10.37,2013-11-20 05:26:00,
2013-11-20 00:31:00,32.6,23.9,30.35,SE,133,1.0,3.0,70,0.00,CLR,OVC,0.00,WeatherDisplay:10.37,2013-11-20 05:31:00,
2013-11-20 00:36:00,32.6,23.9,30.36,SE,134,1.0,4.0,70,0.00,CLR,OVC,0.00,WeatherDisplay:10.37,2013-11-20 05:36:00,
2013-11-20 00:41:00,32.5,23.8,30.35,SE,131,0.0,3.0,70,0.00,CLR,OVC,0.00,WeatherDisplay:10.37,2013-11-20 05:41:00,
2013-11-20 00:46:00,32.4,24.0,30.35,SE,129,0.0,4.0,71,0.00,CLR,OVC,0.00,WeatherDisplay:10.37,2013-11-20 05:46:00,
2013-11-20 00:51:00,32.3,23.9,30.35,SE,131,1.0,2.0,71,0.00,CLR,OVC,0.00,WeatherDisplay:10.37,2013-11-20 05:51:00,
2013-11-20 00:56:00,32.2,23.8,30.35,SE,126,1.0,3.0,71,0.00,CLR,OVC,0.00,WeatherDisplay:10.37,2013-11-20 05:56:00,
2013-11-20 01:01:00,32.1,23.8,30.35,SE,135,1.0,5.0,71,0.00,CLR,OVC,0.00,WeatherDisplay:10.37,2013-11-20 06:01:00,
2013-11-20 01:06:00,32.0,24.0,30.35,SE,139,0.0,2.0,72,0.00,CLR,OVC,0.00,WeatherDisplay:10.37,2013-11-20 06:06:00,
2013-11-20 01:11:00,31.9,23.9,30.35,SE,124,1.0,4.0,72,0.00,CLR,OVC,0.00,WeatherDisplay:10.37,2013-11-20 06:11:00,
2013-11-20 01:16:00,31.9,23.9,30.35,SE,128,1.0,3.0,72,0.00,CLR,OVC,0.00,WeatherDisplay:10.37,2013-11-20 06:16:00,
2013-11-20 01:21:00,31.8,23.8,30.35,SE,127,1.0,5.0,72,0.00,CLR,OVC,0.00,WeatherDisplay:10.37,2013-11-20 06:21:00,
2013-11-20 01:26:00,31.7,24.0,30.35,SE,131,2.0,6.0,73,0.00,CLR,OVC,0.00,WeatherDisplay:10.37,2013-11-20 06:26:00,
2013-11-20 01:31:00,31.8,24.1,30.35,SE,135,1.0,3.0,73,0.00,CLR,OVC,0.00,WeatherDisplay:10.37,2013-11-20 06:31:00,
2013-11-20 01:36:00,31.8,24.1,30.35,SE,132,2.0,5.0,73,0.00,CLR,OVC,0.00,WeatherDisplay:10.37,2013-11-20 06:36:00,
2013-11-20 01:41:00,31.8,24.1,30.35,SE,132,3.0,5.0,73,0.00,CLR,OVC,0.00,WeatherDisplay:10.37,2013-11-20 06:41:00,
2013-11-20 01:46:00,31.8,24.1,30.35,SE,134,0.0,3.0,73,0.00,CLR,OVC,0.00,WeatherDisplay:10.37,2013-11-20 06:46:00,
2013-11-20 01:51:00,31.8,24.1,30.35,SE,131,1.0,3.0,73,0.00,CLR,OVC,0.00,WeatherDisplay:10.37,2013-11-20 06:51:00,
2013-11-20 01:56:00,31.8,24.1,30.35,SE,127,0.0,4.0,73,0.00,CLR,OVC,0.00,WeatherDisplay:10.37,2013-11-20 06:56:00,
2013-11-20 02:01:00,31.7,24.0,30.35,SE,134,1.0,6.0,73,0.00,CLR,OVC,0.00,WeatherDisplay:10.37,2013-11-20 07:01:00,
2013-11-20 02:06:00,31.7,24.0,30.35,SE,140,1.0,5.0,73,0.00,CLR,OVC,0.00,WeatherDisplay:10.37,2013-11-20 07:06:00,
2013-11-20 02:11:00,31.7,24.4,30.36,SE,137,0.0,7.0,74,0.00,CLR,OVC,0.00,WeatherDisplay:10.37,2013-11-20 07:11:00,
2013-11-20 02:16:00,31.7,24.0,30.36,SE,134,1.0,3.0,73,0.00,CLR,OVC,0.00,WeatherDisplay:10.37,2013-11-20 07:16:00,
2013-11-20 02:21:00,31.6,24.3,30.36,SE,137,2.0,6.0,74,0.00,CLR,OVC,0.00,WeatherDisplay:10.37,2013-11-20 07:21:00,
2013-11-20 02:26:00,31.7,24.4,30.36,SSE,149,1.0,3.0,74,0.00,CLR,OVC,0.00,WeatherDisplay:10.37,2013-11-20 07:26:00,
2013-11-20 02:31:00,31.7,24.4,30.36,SE,146,0.0,2.0,74,0.00,CLR,OVC,0.00,WeatherDisplay:10.37,2013-11-20 07:31:00,
2013-11-20 02:36:00,31.6,24.3,30.36,SE,138,0.0,1.0,74,0.00,CLR,OVC,0.00,WeatherDisplay:10.37,2013-11-20 07:36:00,
2013-11-20 02:41:00,31.5,24.2,30.36,SSE,151,0.0,2.0,74,0.00,CLR,OVC,0.00,WeatherDisplay:10.37,2013-11-20 07:41:00,
2013-11-20 02:46:00,31.3,24.0,30.36,SE,140,0.0,2.0,74,0.00,CLR,OVC,0.00,WeatherDisplay:10.37,2013-11-20 07:46:00,
2013-11-20 02:51:00,31.2,24.2,30.37,SE,132,0.0,2.0,75,0.00,CLR,OVC,0.00,WeatherDisplay:10.37,2013-11-20 07:51:00,
2013-11-20 02:56:00,31.1,24.1,30.37,SE,131,0.0,2.0,75,0.00,CLR,OVC,0.00,WeatherDisplay:10.37,2013-11-20 07:56:00,
2013-11-20 03:01:00,31.0,24.0,30.37,SE,131,0.0,2.0,75,0.00,CLR,OVC,0.00,WeatherDisplay:10.37,2013-11-20 08:01:00,
2013-11-20 03:06:00,30.9,23.9,30.37,SE,131,0.0,0.0,75,0.00,CLR,OVC,0.00,WeatherDisplay:10.37,2013-11-20 08:06:00,
2013-11-20 03:11:00,30.8,24.1,30.37,SE,131,0.0,2.0,76,0.00,CLR,OVC,0.00,WeatherDisplay:10.37,2013-11-20 08:11:00,
2013-11-20 03:16:00,30.7,24.0,30.37,SE,131,0.0,1.0,76,0.00,CLR,OVC,0.00,WeatherDisplay:10.37,2013-11-20 08:16:00,
2013-11-20 03:21:00,30.6,24.2,30.37,SE,131,0.0,2.0,77,0.00,CLR,OVC,0.00,WeatherDisplay:10.37,2013-11-20 08:21:00,
2013-11-20 03:26:00,30.5,24.1,30.37,SE,131,0.0,1.0,77,0.00,CLR,OVC,0.00,WeatherDisplay:10.37,2013-11-20 08:26:00,
2013-11-20 03:31:00,30.4,24.1,30.37,SE,131,0.0,3.0,77,0.00,CLR,OVC,0.00,WeatherDisplay:10.37,2013-11-20 08:31:00,
2013-11-20 03:36:00,30.2,23.9,30.37,SE,131,0.0,1.0,77,0.00,CLR,OVC,0.00,WeatherDisplay:10.37,2013-11-20 08:36:00,
2013-11-20 03:41:00,30.1,24.1,30.37,SE,131,0.0,3.0,78,0.00,CLR,OVC,0.00,WeatherDisplay:10.37,2013-11-20 08:41:00,
2013-11-20 03:46:00,30.0,24.0,30.37,SE,131,0.0,1.0,78,0.00,CLR,OVC,0.00,WeatherDisplay:10.37,2013-11-20 08:46:00,
2013-11-20 03:51:00,29.8,23.8,30.37,SE,131,1.0,3.0,78,0.00,CLR,OVC,0.00,WeatherDisplay:10.37,2013-11-20 08:51:00,
2013-11-20 03:56:00,29.7,24.0,30.37,SE,131,0.0,2.0,79,0.00,CLR,OVC,0.00,WeatherDisplay:10.37,2013-11-20 08:56:00,
2013-11-20 04:01:00,29.7,24.0,30.37,SE,135,1.0,3.0,79,0.00,CLR,OVC,0.00,WeatherDisplay:10.37,2013-11-20 09:01:00,
2013-11-20 04:06:00,29.8,24.1,30.37,SE,131,1.0,5.0,79,0.00,CLR,OVC,0.00,WeatherDisplay:10.37,2013-11-20 09:06:00,
2013-11-20 04:11:00,29.9,24.2,30.37,SE,126,0.0,3.0,79,0.00,CLR,OVC,0.00,WeatherDisplay:10.37,2013-11-20 09:11:00,
2013-11-20 04:16:00,29.9,24.2,30.36,ESE,123,1.0,5.0,79,0.00,CLR,OVC,0.00,WeatherDisplay:10.37,2013-11-20 09:16:00,
2013-11-20 04:21:00,30.0,24.3,30.36,ESE,120,0.0,5.0,79,0.00,CLR,OVC,0.00,WeatherDisplay:10.37,2013-11-20 09:21:00,
2013-11-20 04:26:00,30.2,24.4,30.36,SE,124,1.0,5.0,79,0.00,CLR,OVC,0.00,WeatherDisplay:10.37,2013-11-20 09:26:00,
2013-11-20 04:31:00,30.3,24.3,30.36,SE,131,1.0,6.0,78,0.00,CLR,OVC,0.00,WeatherDisplay:10.37,2013-11-20 09:31:00,
2013-11-20 04:36:00,30.3,24.3,30.36,SE,127,0.0,7.0,78,0.00,CLR,OVC,0.00,WeatherDisplay:10.37,2013-11-20 09:36:00,
2013-11-20 04:41:00,30.4,24.4,30.36,SE,126,3.0,10.0,78,0.00,CLR,OVC,0.00,WeatherDisplay:10.37,2013-11-20 09:41:00,
2013-11-20 04:46:00,30.6,24.6,30.36,SE,133,2.0,9.0,78,0.00,CLR,OVC,0.00,WeatherDisplay:10.37,2013-11-20 09:46:00,
2013-11-20 04:51:00,30.7,24.3,30.36,SE,131,3.0,8.0,77,0.00,CLR,OVC,0.00,WeatherDisplay:10.37,2013-11-20 09:51:00,
2013-11-20 04:56:00,30.8,24.4,30.36,SE,135,3.0,9.0,77,0.00,CLR,OVC,0.00,WeatherDisplay:10.37,2013-11-20 09:56:00,
2013-11-20 05:01:00,30.8,24.4,30.36,SE,130,2.0,5.0,77,0.00,CLR,OVC,0.00,WeatherDisplay:10.37,2013-11-20 10:01:00,
2013-11-20 05:06:00,30.8,24.4,30.35,ESE,123,2.0,7.0,77,0.00,CLR,OVC,0.00,WeatherDisplay:10.37,2013-11-20 10:06:00,
2013-11-20 05:11:00,30.9,24.2,30.35,SE,127,2.0,9.0,76,0.00,CLR,OVC,0.00,WeatherDisplay:10.37,2013-11-20 10:11:00,
2013-11-20 05:16:00,30.9,24.2,30.35,SE,130,5.0,10.0,76,0.00,CLR,OVC,0.00,WeatherDisplay:10.37,2013-11-20 10:16:00,
2013-11-20 05:21:00,31.0,24.3,30.36,SE,128,2.0,12.0,76,0.00,CLR,OVC,0.00,WeatherDisplay:10.37,2013-11-20 10:21:00,
2013-11-20 05:26:00,31.0,24.3,30.36,SE,124,2.0,12.0,76,0.00,CLR,OVC,0.00,WeatherDisplay:10.37,2013-11-20 10:26:00,
2013-11-20 05:31:00,31.0,24.3,30.36,SE,126,3.0,9.0,76,0.00,CLR,OVC,0.00,WeatherDisplay:10.37,2013-11-20 10:31:00,
2013-11-20 05:36:00,31.1,24.1,30.36,SE,126,2.0,8.0,75,0.00,CLR,OVC,0.00,WeatherDisplay:10.37,2013-11-20 10:36:00,
2013-11-20 05:41:00,31.1,24.1,30.35,ESE,121,1.0,7.0,75,0.00,CLR,OVC,0.00,WeatherDisplay:10.37,2013-11-20 10:41:00,
2013-11-20 05:46:00,31.1,24.1,30.36,SE,129,5.0,12.0,75,0.00,CLR,OVC,0.00,WeatherDisplay:10.37,2013-11-20 10:46:00,
2013-11-20 05:51:00,31.3,24.3,30.36,SE,135,3.0,9.0,75,0.00,CLR,OVC,0.00,WeatherDisplay:10.37,2013-11-20 10:51:00,
2013-11-20 05:56:00,31.3,24.3,30.36,SE,136,5.0,9.0,75,0.00,CLR,OVC,0.00,WeatherDisplay:10.37,2013-11-20 10:56:00,
2013-11-20 06:01:00,31.3,24.3,30.36,SE,132,2.0,8.0,75,0.00,BKN,OVC,0.00,WeatherDisplay:10.37,2013-11-20 11:01:00,
2013-11-20 06:06:00,31.3,24.3,30.36,SE,125,1.0,8.0,75,0.00,BKN,OVC,0.00,WeatherDisplay:10.37,2013-11-20 11:06:00,
2013-11-20 06:11:00,31.1,24.4,30.36,SE,126,2.0,7.0,76,0.00,BKN,OVC,0.00,WeatherDisplay:10.37,2013-11-20 11:11:00,
2013-11-20 06:16:00,31.1,24.4,30.36,SE,138,1.0,7.0,76,0.00,BKN,OVC,0.00,WeatherDisplay:10.37,2013-11-20 11:16:00,
2013-11-20 06:21:00,31.0,24.3,30.36,SSE,147,0.0,5.0,76,0.00,BKN,OVC,0.00,WeatherDisplay:10.37,2013-11-20 11:21:00,
2013-11-20 06:26:00,31.0,24.3,30.36,SE,142,2.0,3.0,76,0.00,BKN,OVC,0.00,WeatherDisplay:10.37,2013-11-20 11:26:00,
2013-11-20 06:31:00,30.9,24.2,30.36,SE,140,2.0,6.0,76,0.00,BKN,OVC,0.00,WeatherDisplay:10.37,2013-11-20 11:31:00,
2013-11-20 06:36:00,30.9,24.5,30.36,SE,130,2.0,4.0,77,0.00,BKN,OVC,0.00,WeatherDisplay:10.37,2013-11-20 11:36:00,
2013-11-20 06:41:00,31.0,24.6,30.36,SE,131,2.0,7.0,77,0.00,BKN,OVC,0.00,WeatherDisplay:10.37,2013-11-20 11:41:00,
2013-11-20 06:46:00,31.1,24.4,30.36,ESE,123,3.0,7.0,76,0.00,BKN,OVC,0.00,WeatherDisplay:10.37,2013-11-20 11:46:00,
2013-11-20 06:51:00,31.3,24.6,30.36,ESE,121,1.0,5.0,76,0.00,BKN,OVC,0.00,WeatherDisplay:10.37,2013-11-20 11:51:00,
2013-11-20 06:56:00,31.3,24.6,30.35,SE,129,2.0,8.0,76,0.00,BKN,OVC,0.00,WeatherDisplay:10.37,2013-11-20 11:56:00,
2013-11-20 07:01:00,31.3,24.7,30.35,SE,130,2.0,6.0,76,0.00,BKN,OVC,0.00,WeatherDisplay:10.37,2013-11-20 12:01:00,
2013-11-20 07:06:00,31.4,24.7,30.35,SE,132,3.0,6.0,76,0.00,BKN,OVC,0.00,WeatherDisplay:10.37,2013-11-20 12:06:00,
2013-11-20 07:11:00,31.5,24.8,30.36,SE,129,1.0,9.0,76,0.00,BKN,OVC,0.00,WeatherDisplay:10.37,2013-11-20 12:11:00,
2013-11-20 07:16:00,31.4,24.8,30.36,SE,127,0.0,4.0,76,0.00,BKN,OVC,0.00,WeatherDisplay:10.37,2013-11-20 12:16:00,
2013-11-20 07:21:00,31.4,24.7,30.36,SE,131,2.0,7.0,76,0.00,BKN,OVC,0.00,WeatherDisplay:10.37,2013-11-20 12:21:00,
2013-11-20 07:26:00,31.4,24.7,30.36,SSE,147,2.0,6.0,76,0.00,BKN,OVC,0.00,WeatherDisplay:10.37,2013-11-20 12:26:00,
2013-11-20 07:31:00,31.4,24.7,30.36,SE,137,2.0,7.0,76,0.00,BKN,OVC,0.00,WeatherDisplay:10.37,2013-11-20 12:31:00,
2013-11-20 07:36:00,31.4,24.7,30.36,SE,133,2.0,6.0,76,0.00,BKN,OVC,0.00,WeatherDisplay:10.37,2013-11-20 12:36:00,
2013-11-20 07:41:00,31.4,24.7,30.36,SE,135,3.0,6.0,76,0.00,BKN,OVC,0.00,WeatherDisplay:10.37,2013-11-20 12:41:00,
2013-11-20 07:46:00,31.5,24.8,30.36,SE,135,2.0,5.0,76,0.00,BKN,OVC,0.00,WeatherDisplay:10.37,2013-11-20 12:46:00,
2013-11-20 07:51:00,31.5,24.8,30.36,SE,139,2.0,10.0,76,0.00,BKN,OVC,0.00,WeatherDisplay:10.37,2013-11-20 12:51:00,
2013-11-20 07:56:00,31.6,24.9,30.36,SE,135,2.0,7.0,76,0.00,BKN,OVC,0.00,WeatherDisplay:10.37,2013-11-20 12:56:00,
2013-11-20 08:01:00,31.6,24.9,30.36,SE,136,5.0,9.0,76,0.00,SCT,OVC,0.00,WeatherDisplay:10.37,2013-11-20 13:01:00,
2013-11-20 08:06:00,31.7,25.0,30.36,SE,138,3.0,8.0,76,0.00,SCT,OVC,0.00,WeatherDisplay:10.37,2013-11-20 13:06:00,
2013-11-20 08:11:00,31.8,25.1,30.36,SE,131,3.0,12.0,76,0.00,SCT,OVC,0.00,WeatherDisplay:10.37,2013-11-20 13:11:00,
2013-11-20 08:16:00,31.9,24.9,30.36,SE,131,3.0,9.0,75,0.00,SCT,OVC,0.00,WeatherDisplay:10.37,2013-11-20 13:16:00,
2013-11-20 08:21:00,32.0,25.0,30.35,SE,130,3.0,8.0,75,0.00,SCT,OVC,0.00,WeatherDisplay:10.37,2013-11-20 13:21:00,
2013-11-20 08:26:00,32.1,25.1,30.35,SE,125,2.0,12.0,75,0.00,SCT,OVC,0.00,WeatherDisplay:10.37,2013-11-20 13:26:00,
2013-11-20 08:31:00,32.2,25.2,30.35,SE,128,3.0,15.0,75,0.00,SCT,OVC,0.00,WeatherDisplay:10.37,2013-11-20 13:31:00,
2013-11-20 08:36:00,32.2,25.2,30.34,SE,131,5.0,12.0,75,0.00,SCT,OVC,0.00,WeatherDisplay:10.37,2013-11-20 13:36:00,
2013-11-20 08:41:00,32.3,25.3,30.35,SE,124,7.0,12.0,75,0.00,SCT,OVC,0.00,WeatherDisplay:10.37,2013-11-20 13:41:00,
2013-11-20 08:46:00,32.6,25.5,30.34,SE,131,7.0,14.0,75,0.00,SCT,OVC,0.00,WeatherDisplay:10.37,2013-11-20 13:46:00,
2013-11-20 08:51:00,32.8,25.4,30.35,SE,132,5.0,14.0,74,0.00,SCT,OVC,0.00,WeatherDisplay:10.37,2013-11-20 13:51:00,
2013-11-20 08:56:00,32.9,25.5,30.34,SE,133,5.0,9.0,74,0.00,SCT,OVC,0.00,WeatherDisplay:10.37,2013-11-20 13:56:00,
2013-11-20 09:01:00,33.2,25.4,30.34,SE,130,3.0,12.0,73,0.00,BKN,OVC,0.00,WeatherDisplay:10.37,2013-11-20 14:01:00,
2013-11-20 09:06:00,33.4,25.7,30.34,ESE,123,3.0,12.0,73,0.00,BKN,OVC,0.00,WeatherDisplay:10.37,2013-11-20 14:06:00,
2013-11-20 09:11:00,33.7,25.6,30.34,SE,130,7.0,16.0,72,0.00,BKN,OVC,0.00,WeatherDisplay:10.37,2013-11-20 14:11:00,
2013-11-20 09:16:00,33.9,25.8,30.34,SE,131,5.0,13.0,72,0.00,BKN,OVC,0.00,WeatherDisplay:10.37,2013-11-20 14:16:00,
2013-11-20 09:21:00,34.2,26.1,30.34,ESE,122,2.0,10.0,72,0.00,BKN,OVC,0.00,WeatherDisplay:10.37,2013-11-20 14:21:00,
2013-11-20 09:26:00,34.5,25.7,30.34,ESE,123,9.0,18.0,70,0.00,BKN,OVC,0.00,WeatherDisplay:10.37,2013-11-20 14:26:00,
2013-11-20 09:31:00,34.6,25.8,30.34,SE,128,6.0,12.0,70,0.00,BKN,OVC,0.00,WeatherDisplay:10.37,2013-11-20 14:31:00,
2013-11-20 09:36:00,34.8,26.0,30.34,SE,133,3.0,13.0,70,0.00,BKN,OVC,0.00,WeatherDisplay:10.37,2013-11-20 14:36:00,
2013-11-20 09:41:00,34.9,25.8,30.34,SE,135,5.0,12.0,69,0.00,BKN,OVC,0.00,WeatherDisplay:10.37,2013-11-20 14:41:00,
2013-11-20 09:46:00,35.0,25.8,30.33,SE,137,5.0,13.0,69,0.00,BKN,OVC,0.00,WeatherDisplay:10.37,2013-11-20 14:46:00,
2013-11-20 09:51:00,35.0,25.9,30.33,SE,132,3.0,12.0,69,0.00,BKN,OVC,0.00,WeatherDisplay:10.37,2013-11-20 14:51:00,
2013-11-20 09:56:00,35.1,25.9,30.33,ESE,123,2.0,18.0,69,0.00,BKN,OVC,0.00,WeatherDisplay:10.37,2013-11-20 14:56:00,
2013-11-20 10:01:00,35.3,26.1,30.33,ESE,123,3.0,7.0,69,0.00,OVC,OVC,0.00,WeatherDisplay:10.37,2013-11-20 15:01:00,
2013-11-20 10:06:00,35.5,26.3,30.33,SE,131,2.0,10.0,69,0.00,OVC,OVC,0.00,WeatherDisplay:10.37,2013-11-20 15:06:00,
2013-11-20 10:11:00,35.8,26.6,30.33,SE,130,5.0,13.0,69,0.00,OVC,OVC,0.00,WeatherDisplay:10.37,2013-11-20 15:11:00,
2013-11-20 10:16:00,35.9,26.4,30.33,SE,128,5.0,13.0,68,0.00,OVC,OVC,0.00,WeatherDisplay:10.37,2013-11-20 15:16:00,
2013-11-20 10:21:00,36.2,26.6,30.33,SE,131,5.0,14.0,68,0.00,OVC,OVC,0.00,WeatherDisplay:10.37,2013-11-20 15:21:00,
2013-11-20 10:26:00,36.4,26.8,30.33,SE,130,8.0,16.0,68,0.00,OVC,OVC,0.00,WeatherDisplay:10.37,2013-11-20 15:26:00,
2013-11-20 10:31:00,36.7,26.8,30.33,SE,130,6.0,16.0,67,0.00,OVC,OVC,0.00,WeatherDisplay:10.37,2013-11-20 15:31:00,
2013-11-20 10:36:00,37.1,27.2,30.32,SE,131,7.0,16.0,67,0.00,OVC,OVC,0.00,WeatherDisplay:10.37,2013-11-20 15:36:00,
2013-11-20 10:41:00,37.6,27.6,30.32,SE,135,5.0,14.0,67,0.00,OVC,OVC,0.00,WeatherDisplay:10.37,2013-11-20 15:41:00,
2013-11-20 10:46:00,37.9,27.2,30.32,SE,138,10.0,20.0,65,0.00,OVC,OVC,0.00,WeatherDisplay:10.37,2013-11-20 15:46:00,
2013-11-20 10:51:00,38.0,27.6,30.32,SE,143,7.0,13.0,66,0.00,OVC,OVC,0.00,WeatherDisplay:10.37,2013-11-20 15:51:00,
2013-11-20 10:56:00,38.4,28.4,30.32,SE,142,7.0,10.0,67,0.00,OVC,OVC,0.00,WeatherDisplay:10.37,2013-11-20 15:56:00,
2013-11-20 11:01:00,38.9,28.1,30.32,SE,140,8.0,20.0,65,0.00,OVC,OVC,0.00,WeatherDisplay:10.37,2013-11-20 16:01:00,
2013-11-20 11:06:00,39.2,28.4,30.32,SE,134,6.0,14.0,65,0.00,OVC,OVC,0.00,WeatherDisplay:10.37,2013-11-20 16:06:00,
2013-11-20 11:11:00,39.6,28.4,30.32,SE,127,5.0,18.0,64,0.00,OVC,OVC,0.00,WeatherDisplay:10.37,2013-11-20 16:11:00,
2013-11-20 11:16:00,39.8,27.8,30.32,SE,130,8.0,23.0,62,0.00,OVC,OVC,0.00,WeatherDisplay:10.37,2013-11-20 16:16:00,
2013-11-20 11:21:00,39.9,28.4,30.32,SE,136,2.0,17.0,63,0.00,OVC,OVC,0.00,WeatherDisplay:10.37,2013-11-20 16:21:00,
2013-11-20 11:26:00,40.4,28.4,30.32,SE,143,7.0,12.0,62,0.00,OVC,OVC,0.00,WeatherDisplay:10.37,2013-11-20 16:26:00,
2013-11-20 11:31:00,40.5,28.1,30.31,SSE,154,7.0,13.0,61,0.00,OVC,OVC,0.00,WeatherDisplay:10.37,2013-11-20 16:31:00,
2013-11-20 11:36:00,40.5,27.7,30.31,SSE,150,7.0,15.0,60,0.00,OVC,OVC,0.00,WeatherDisplay:10.37,2013-11-20 16:36:00,
2013-11-20 11:41:00,40.4,27.6,30.31,SSE,147,5.0,15.0,60,0.00,OVC,OVC,0.00,WeatherDisplay:10.37,2013-11-20 16:41:00,
2013-11-20 11:46:00,40.4,27.6,30.31,SSE,156,5.0,14.0,60,0.00,OVC,OVC,0.00,WeatherDisplay:10.37,2013-11-20 16:46:00,
2013-11-20 11:51:00,40.3,27.1,30.31,SSE,148,6.0,15.0,59,0.00,OVC,OVC,0.00,WeatherDisplay:10.37,2013-11-20 16:51:00,
2013-11-20 11:56:00,40.4,26.8,30.31,SE,138,8.0,14.0,58,0.00,OVC,OVC,0.00,WeatherDisplay:10.37,2013-11-20 16:56:00,
2013-11-20 12:01:00,40.5,27.3,30.31,SE,131,6.0,13.0,59,0.00,OVC,OVC,0.00,WeatherDisplay:10.37,2013-11-20 17:01:00,
2013-11-20 12:06:00,40.6,27.0,30.31,SE,133,7.0,16.0,58,0.00,OVC,OVC,0.00,WeatherDisplay:10.37,2013-11-20 17:06:00,
2013-11-20 12:11:00,40.9,27.2,30.31,SE,143,5.0,12.0,58,0.00,OVC,OVC,0.00,WeatherDisplay:10.37,2013-11-20 17:11:00,
2013-11-20 12:16:00,40.9,26.9,30.31,SE,131,5.0,14.0,57,0.00,OVC,OVC,0.00,WeatherDisplay:10.37,2013-11-20 17:16:00,
2013-11-20 12:21:00,41.0,27.3,30.30,SE,124,1.0,7.0,58,0.00,OVC,OVC,0.00,WeatherDisplay:10.37,2013-11-20 17:21:00,
2013-11-20 12:26:00,41.3,27.2,30.30,SE,146,5.0,10.0,57,0.00,OVC,OVC,0.00,WeatherDisplay:10.37,2013-11-20 17:26:00,
2013-11-20 12:31:00,41.4,27.3,30.30,SE,134,3.0,10.0,57,0.00,OVC,OVC,0.00,WeatherDisplay:10.37,2013-11-20 17:31:00,
2013-11-20 12:36:00,41.6,27.0,30.30,ESE,116,2.0,12.0,56,0.00,OVC,OVC,0.00,WeatherDisplay:10.37,2013-11-20 17:36:00,
2013-11-20 12:41:00,41.9,28.2,30.30,ESE,115,3.0,9.0,58,0.00,OVC,OVC,0.00,WeatherDisplay:10.37,2013-11-20 17:41:00,
2013-11-20 12:46:00,42.0,27.4,30.30,SE,126,2.0,10.0,56,0.00,OVC,OVC,0.00,WeatherDisplay:10.37,2013-11-20 17:46:00,
2013-11-20 12:51:00,42.4,27.8,30.30,SE,141,3.0,8.0,56,0.00,OVC,OVC,0.00,WeatherDisplay:10.37,2013-11-20 17:51:00,
2013-11-20 12:56:00,42.6,27.9,30.29,SE,145,0.0,3.0,56,0.00,OVC,OVC,0.00,WeatherDisplay:10.37,2013-11-20 17:56:00,
2013-11-20 13:01:00,42.8,27.7,30.29,ESE,123,3.0,8.0,55,0.00,OVC,OVC,0.00,WeatherDisplay:10.37,2013-11-20 18:01:00,
2013-11-20 13:06:00,43.1,28.0,30.29,ESE,123,5.0,8.0,55,0.00,OVC,OVC,0.00,WeatherDisplay:10.37,2013-11-20 18:06:00,
2013-11-20 13:11:00,43.3,27.7,30.28,ESE,122,1.0,7.0,54,0.00,OVC,OVC,0.00,WeatherDisplay:10.37,2013-11-20 18:11:00,
2013-11-20 13:16:00,43.5,27.9,30.28,ESE,119,2.0,9.0,54,0.00,OVC,OVC,0.00,WeatherDisplay:10.37,2013-11-20 18:16:00,
2013-11-20 13:21:00,43.4,27.8,30.27,ESE,119,0.0,12.0,54,0.00,OVC,OVC,0.00,WeatherDisplay:10.37,2013-11-20 18:21:00,
2013-11-20 13:26:00,43.2,28.1,30.27,ESE,121,2.0,7.0,55,0.00,OVC,OVC,0.00,WeatherDisplay:10.37,2013-11-20 18:26:00,
2013-11-20 13:31:00,43.3,29.1,30.27,ESE,106,1.0,6.0,57,0.00,OVC,OVC,0.00,WeatherDisplay:10.37,2013-11-20 18:31:00,
2013-11-20 13:36:00,43.5,27.9,30.27,ESE,105,2.0,8.0,54,0.00,OVC,OVC,0.00,WeatherDisplay:10.37,2013-11-20 18:36:00,
2013-11-20 13:41:00,43.9,27.8,30.27,ESE,117,3.0,8.0,53,0.00,OVC,OVC,0.00,WeatherDisplay:10.37,2013-11-20 18:41:00,
2013-11-20 13:46:00,44.0,27.9,30.27,SE,140,2.0,8.0,53,0.00,OVC,OVC,0.00,WeatherDisplay:10.37,2013-11-20 18:46:00,
2013-11-20 13:51:00,44.2,28.6,30.26,SE,141,1.0,9.0,54,0.00,OVC,OVC,0.00,WeatherDisplay:10.37,2013-11-20 18:51:00,
2013-11-20 13:56:00,44.3,26.8,30.26,SE,129,6.0,9.0,50,0.00,OVC,OVC,0.00,WeatherDisplay:10.37,2013-11-20 18:56:00,
2013-11-20 14:01:00,44.4,27.4,30.26,SE,130,2.0,5.0,51,0.00,OVC,OVC,0.00,WeatherDisplay:10.37,2013-11-20 19:01:00,
2013-11-20 14:06:00,44.6,27.0,30.25,SE,139,5.0,10.0,50,0.00,OVC,OVC,0.00,WeatherDisplay:10.37,2013-11-20 19:06:00,
2013-11-20 14:11:00,44.5,27.0,30.25,ESE,113,3.0,9.0,50,0.00,OVC,OVC,0.00,WeatherDisplay:10.37,2013-11-20 19:11:00,
2013-11-20 14:16:00,44.3,25.9,30.25,ESE,115,5.0,13.0,48,0.00,OVC,OVC,0.00,WeatherDisplay:10.37,2013-11-20 19:16:00,
2013-11-20 14:21:00,44.3,25.9,30.24,SE,124,2.0,9.0,48,0.00,OVC,OVC,0.00,WeatherDisplay:10.37,2013-11-20 19:21:00,
2013-11-20 14:26:00,44.5,26.0,30.24,ESE,120,2.0,9.0,48,0.00,OVC,OVC,0.00,WeatherDisplay:10.37,2013-11-20 19:26:00,
2013-11-20 14:31:00,44.8,26.3,30.24,ESE,113,5.0,12.0,48,0.00,OVC,OVC,0.00,WeatherDisplay:10.37,2013-11-20 19:31:00,
2013-11-20 14:36:00,45.0,25.5,30.24,ESE,123,5.0,10.0,46,0.00,OVC,OVC,0.00,WeatherDisplay:10.37,2013-11-20 19:36:00,
2013-11-20 14:41:00,45.1,24.5,30.23,SE,135,7.0,12.0,44,0.00,OVC,OVC,0.00,WeatherDisplay:10.37,2013-11-20 19:41:00,
2013-11-20 14:46:00,45.2,25.6,30.23,SE,142,5.0,9.0,46,0.00,OVC,OVC,0.00,WeatherDisplay:10.37,2013-11-20 19:46:00,
2013-11-20 14:51:00,45.5,25.9,30.23,ESE,123,3.0,8.0,46,0.00,OVC,OVC,0.00,WeatherDisplay:10.37,2013-11-20 19:51:00,
2013-11-20 14:56:00,45.6,26.0,30.22,ESE,112,3.0,8.0,46,0.00,OVC,OVC,0.00,WeatherDisplay:10.37,2013-11-20 19:56:00,
2013-11-20 15:01:00,45.6,25.5,30.22,SE,127,1.0,7.0,45,0.00,BKN,OVC,0.00,WeatherDisplay:10.37,2013-11-20 20:01:00,
2013-11-20 15:06:00,45.3,23.6,30.22,SE,132,6.0,9.0,42,0.00,BKN,OVC,0.00,WeatherDisplay:10.37,2013-11-20 20:06:00,
2013-11-20 15:11:00,44.9,23.2,30.22,SE,134,5.0,9.0,42,0.00,BKN,OVC,0.00,WeatherDisplay:10.37,2013-11-20 20:11:00,
2013-11-20 15:16:00,45.0,24.4,30.22,SE,131,2.0,10.0,44,0.00,BKN,OVC,0.00,WeatherDisplay:10.37,2013-11-20 20:16:00,
2013-11-20 15:21:00,45.4,25.3,30.21,ESE,114,3.0,9.0,45,0.00,BKN,OVC,0.00,WeatherDisplay:10.37,2013-11-20 20:21:00,
2013-11-20 15:26:00,45.9,24.1,30.21,ESE,115,5.0,12.0,42,0.00,BKN,OVC,0.00,WeatherDisplay:10.37,2013-11-20 20:26:00,
2013-11-20 15:31:00,45.9,23.5,30.21,ESE,110,6.0,10.0,41,0.00,BKN,OVC,0.00,WeatherDisplay:10.37,2013-11-20 20:31:00,
2013-11-20 15:36:00,45.8,22.8,30.21,ESE,114,8.0,16.0,40,0.00,BKN,OVC,0.00,WeatherDisplay:10.37,2013-11-20 20:36:00,
2013-11-20 15:41:00,45.6,22.6,30.21,SE,127,3.0,14.0,40,0.00,BKN,OVC,0.00,WeatherDisplay:10.37,2013-11-20 20:41:00,
2013-11-20 15:46:00,45.5,22.5,30.21,SE,128,5.0,9.0,40,0.00,BKN,OVC,0.00,WeatherDisplay:10.37,2013-11-20 20:46:00,
2013-11-20 15:51:00,45.3,22.4,30.21,SE,134,3.0,9.0,40,0.00,BKN,OVC,0.00,WeatherDisplay:10.37,2013-11-20 20:51:00,
2013-11-20 15:56:00,44.9,22.1,30.20,SE,133,6.0,13.0,40,0.00,BKN,OVC,0.00,WeatherDisplay:10.37,2013-11-20 20:56:00,
2013-11-20 16:01:00,44.7,22.4,30.20,SE,129,1.0,9.0,41,0.00,BKN,OVC,0.00,WeatherDisplay:10.37,2013-11-20 21:01:00,
2013-11-20 16:06:00,44.5,22.8,30.20,SE,124,5.0,9.0,42,0.00,BKN,OVC,0.00,WeatherDisplay:10.37,2013-11-20 21:06:00,
2013-11-20 16:11:00,44.3,23.2,30.20,ESE,122,2.0,9.0,43,0.00,BKN,OVC,0.00,WeatherDisplay:10.37,2013-11-20 21:11:00,
2013-11-20 16:16:00,44.1,23.6,30.20,ESE,114,2.0,7.0,44,0.00,BKN,OVC,0.00,WeatherDisplay:10.37,2013-11-20 21:16:00,
2013-11-20 16:21:00,43.9,23.9,30.20,East,100,2.0,9.0,45,0.00,BKN,OVC,0.00,WeatherDisplay:10.37,2013-11-20 21:21:00,
2013-11-20 16:26:00,43.7,24.3,30.19,East,101,1.0,5.0,46,0.00,BKN,OVC,0.00,WeatherDisplay:10.37,2013-11-20 21:26:00,
2013-11-20 16:31:00,43.6,24.7,30.20,ESE,106,1.0,6.0,47,0.00,BKN,OVC,0.00,WeatherDisplay:10.37,2013-11-20 21:31:00,
2013-11-20 16:36:00,43.4,25.0,30.19,East,101,1.0,6.0,48,0.00,BKN,OVC,0.00,WeatherDisplay:10.37,2013-11-20 21:36:00,
2013-11-20 16:41:00,43.2,24.8,30.19,East,84,1.0,9.0,48,0.00,BKN,OVC,0.00,WeatherDisplay:10.37,2013-11-20 21:41:00,
2013-11-20 16:46:00,43.1,24.7,30.19,ESE,102,1.0,8.0,48,0.00,BKN,OVC,0.00,WeatherDisplay:10.37,2013-11-20 21:46:00,
2013-11-20 16:51:00,43.0,24.6,30.19,ESE,107,0.0,5.0,48,0.00,BKN,OVC,0.00,WeatherDisplay:10.37,2013-11-20 21:51:00,
2013-11-20 16:56:00,42.9,24.0,30.18,ESE,102,1.0,7.0,47,0.00,BKN,OVC,0.00,WeatherDisplay:10.37,2013-11-20 21:56:00,
2013-11-20 17:01:00,42.8,24.4,30.19,ESE,115,0.0,2.0,48,0.00,BKN,OVC,0.00,WeatherDisplay:10.37,2013-11-20 22:01:00,
2013-11-20 17:06:00,42.6,24.8,30.18,SE,124,0.0,6.0,49,0.00,BKN,OVC,0.00,WeatherDisplay:10.37,2013-11-20 22:06:00,
2013-11-20 17:11:00,42.5,23.7,30.18,ESE,119,2.0,4.0,47,0.00,BKN,OVC,0.00,WeatherDisplay:10.37,2013-11-20 22:11:00,
2013-11-20 17:16:00,42.4,24.1,30.18,ESE,120,1.0,5.0,48,0.00,BKN,OVC,0.00,WeatherDisplay:10.37,2013-11-20 22:16:00,
2013-11-20 17:21:00,42.4,24.1,30.18,ESE,114,1.0,5.0,48,0.00,BKN,OVC,0.00,WeatherDisplay:10.37,2013-11-20 22:21:00,
2013-11-20 17:26:00,42.3,24.0,30.18,ESE,112,1.0,5.0,48,0.00,BKN,OVC,0.00,WeatherDisplay:10.37,2013-11-20 22:26:00,
2013-11-20 17:31:00,42.2,24.9,30.18,ESE,114,0.0,6.0,50,0.00,BKN,OVC,0.00,WeatherDisplay:10.37,2013-11-20 22:31:00,
2013-11-20 17:36:00,42.1,24.3,30.18,ESE,112,0.0,5.0,49,0.00,BKN,OVC,0.00,WeatherDisplay:10.37,2013-11-20 22:36:00,
2013-11-20 17:41:00,42.1,23.8,30.18,ESE,117,1.0,6.0,48,0.00,BKN,OVC,0.00,WeatherDisplay:10.37,2013-11-20 22:41:00,
2013-11-20 17:46:00,42.1,23.8,30.18,ESE,123,0.0,3.0,48,0.00,BKN,OVC,0.00,WeatherDisplay:10.37,2013-11-20 22:46:00,
2013-11-20 17:51:00,42.1,23.8,30.19,SE,125,2.0,4.0,48,0.00,BKN,OVC,0.00,WeatherDisplay:10.37,2013-11-20 22:51:00,
2013-11-20 17:56:00,42.2,23.9,30.19,ESE,123,0.0,5.0,48,0.00,BKN,OVC,0.00,WeatherDisplay:10.37,2013-11-20 22:56:00,
2013-11-20 18:01:00,42.1,23.8,30.20,SE,134,1.0,3.0,48,0.00,OVC,OVC,0.00,WeatherDisplay:10.37,2013-11-20 23:01:00,
2013-11-20 18:06:00,42.0,23.7,30.20,SE,137,1.0,4.0,48,0.00,OVC,OVC,0.00,WeatherDisplay:10.37,2013-11-20 23:06:00,
2013-11-20 18:11:00,41.9,23.6,30.20,SE,141,1.0,4.0,48,0.00,OVC,OVC,0.00,WeatherDisplay:10.37,2013-11-20 23:11:00,
2013-11-20 18:16:00,41.9,24.1,30.20,SE,136,0.0,3.0,49,0.00,OVC,OVC,0.00,WeatherDisplay:10.37,2013-11-20 23:16:00,
2013-11-20 18:21:00,41.7,23.9,30.20,ESE,123,1.0,5.0,49,0.00,OVC,OVC,0.00,WeatherDisplay:10.37,2013-11-20 23:21:00,
2013-11-20 18:26:00,41.7,23.9,30.20,SE,133,1.0,3.0,49,0.00,OVC,OVC,0.00,WeatherDisplay:10.37,2013-11-20 23:26:00,
2013-11-20 18:31:00,41.7,23.9,30.20,SE,140,1.0,2.0,49,0.00,OVC,OVC,0.00,WeatherDisplay:10.37,2013-11-20 23:31:00,
2013-11-20 18:36:00,41.6,23.8,30.20,SE,137,1.0,5.0,49,0.00,OVC,OVC,0.00,WeatherDisplay:10.37,2013-11-20 23:36:00,
2013-11-20 18:41:00,41.6,23.8,30.20,SE,138,2.0,6.0,49,0.00,OVC,OVC,0.00,WeatherDisplay:10.37,2013-11-20 23:41:00,
2013-11-20 18:46:00,41.5,23.8,30.20,SE,131,1.0,3.0,49,0.00,OVC,OVC,0.00,WeatherDisplay:10.37,2013-11-20 23:46:00,
2013-11-20 18:51:00,41.5,24.2,30.20,SE,125,2.0,7.0,50,0.00,OVC,OVC,0.00,WeatherDisplay:10.37,2013-11-20 23:51:00,
2013-11-20 18:56:00,41.4,24.6,30.20,SE,130,0.0,5.0,51,0.00,OVC,OVC,0.00,WeatherDisplay:10.37,2013-11-20 23:56:00,
2013-11-20 19:01:00,41.4,24.6,30.20,SE,129,1.0,6.0,51,0.00,OVC,OVC,0.00,WeatherDisplay:10.37,2013-11-21 00:01:00,
2013-11-20 19:06:00,41.5,24.7,30.20,SE,140,2.0,6.0,51,0.00,OVC,OVC,0.00,WeatherDisplay:10.37,2013-11-21 00:06:00,
2013-11-20 19:11:00,41.7,24.9,30.20,SE,141,1.0,8.0,51,0.00,OVC,OVC,0.00,WeatherDisplay:10.37,2013-11-21 00:11:00,
2013-11-20 19:16:00,41.8,25.0,30.20,SE,134,0.0,4.0,51,0.00,OVC,OVC,0.00,WeatherDisplay:10.37,2013-11-21 00:16:00,
2013-11-20 19:21:00,41.8,25.4,30.20,SE,128,1.0,4.0,52,0.00,OVC,OVC,0.00,WeatherDisplay:10.37,2013-11-21 00:21:00,
2013-11-20 19:26:00,41.8,25.0,30.20,SE,138,1.0,5.0,51,0.00,OVC,OVC,0.00,WeatherDisplay:10.37,2013-11-21 00:26:00,
2013-11-20 19:31:00,41.8,25.4,30.20,SE,143,3.0,6.0,52,0.00,OVC,OVC,0.00,WeatherDisplay:10.37,2013-11-21 00:31:00,
2013-11-20 19:36:00,41.7,25.8,30.20,SSE,154,1.0,7.0,53,0.00,OVC,OVC,0.00,WeatherDisplay:10.37,2013-11-21 00:36:00,
2013-11-20 19:41:00,41.7,26.3,30.20,SSE,150,5.0,8.0,54,0.00,OVC,OVC,0.00,WeatherDisplay:10.37,2013-11-21 00:41:00,
2013-11-20 19:46:00,41.6,26.2,30.20,SSE,148,1.0,7.0,54,0.00,OVC,OVC,0.00,WeatherDisplay:10.37,2013-11-21 00:46:00,
2013-11-20 19:51:00,41.6,26.6,30.20,SE,144,2.0,8.0,55,0.00,OVC,OVC,0.00,WeatherDisplay:10.37,2013-11-21 00:51:00,
2013-11-20 19:56:00,41.4,26.9,30.20,SE,142,1.0,5.0,56,0.00,OVC,OVC,0.00,WeatherDisplay:10.37,2013-11-21 00:56:00,
2013-11-20 20:01:00,41.3,27.2,30.20,SE,145,2.0,10.0,57,0.00,OVC,OVC,0.00,WeatherDisplay:10.37,2013-11-21 01:01:00,
2013-11-20 20:06:00,41.2,27.9,30.20,SSE,152,2.0,12.0,59,0.00,OVC,OVC,0.00,WeatherDisplay:10.37,2013-11-21 01:06:00,
2013-11-20 20:11:00,41.1,27.9,30.19,SSE,155,3.0,8.0,59,0.00,OVC,OVC,0.00,WeatherDisplay:10.37,2013-11-21 01:11:00,
2013-11-20 20:16:00,41.2,28.3,30.19,SE,142,3.0,8.0,60,0.00,OVC,OVC,0.00,WeatherDisplay:10.37,2013-11-21 01:16:00,
2013-11-20 20:21:00,41.2,28.8,30.19,SE,141,5.0,14.0,61,0.00,OVC,OVC,0.00,WeatherDisplay:10.37,2013-11-21 01:21:00,
2013-11-20 20:26:00,41.2,28.8,30.19,SE,135,3.0,7.0,61,0.00,OVC,OVC,0.00,WeatherDisplay:10.37,2013-11-21 01:26:00,
2013-11-20 20:31:00,41.2,29.2,30.19,SE,125,1.0,8.0,62,0.00,OVC,OVC,0.00,WeatherDisplay:10.37,2013-11-21 01:31:00,
2013-11-20 20:36:00,41.1,29.1,30.18,SSE,148,0.0,3.0,62,0.00,OVC,OVC,0.00,WeatherDisplay:10.37,2013-11-21 01:36:00,
2013-11-20 20:41:00,41.0,29.0,30.18,SSE,153,1.0,8.0,62,0.00,OVC,OVC,0.00,WeatherDisplay:10.37,2013-11-21 01:41:00,
2013-11-20 20:46:00,41.0,29.4,30.18,SE,139,1.0,8.0,63,0.00,OVC,OVC,0.00,WeatherDisplay:10.37,2013-11-21 01:46:00,
2013-11-20 20:51:00,41.0,29.4,30.18,SE,127,1.0,6.0,63,0.00,OVC,OVC,0.00,WeatherDisplay:10.37,2013-11-21 01:51:00,
2013-11-20 20:56:00,40.9,29.3,30.17,SE,127,3.0,8.0,63,0.00,OVC,OVC,0.00,WeatherDisplay:10.37,2013-11-21 01:56:00,
2013-11-20 21:01:00,41.0,29.3,30.18,ESE,122,1.0,8.0,63,0.00,OVC,OVC,0.00,WeatherDisplay:10.37,2013-11-21 02:01:00,
2013-11-20 21:06:00,40.9,29.3,30.18,SE,127,2.0,7.0,63,0.00,OVC,OVC,0.00,WeatherDisplay:10.37,2013-11-21 02:06:00,
2013-11-20 21:11:00,40.9,29.3,30.18,SE,132,2.0,6.0,63,0.00,OVC,OVC,0.00,WeatherDisplay:10.37,2013-11-21 02:11:00,
2013-11-20 21:16:00,40.9,29.3,30.18,SE,131,2.0,8.0,63,0.00,OVC,OVC,0.00,WeatherDisplay:10.37,2013-11-21 02:16:00,
2013-11-20 21:21:00,40.9,29.7,30.18,SE,132,0.0,4.0,64,0.00,OVC,OVC,0.00,WeatherDisplay:10.37,2013-11-21 02:21:00,
2013-11-20 21:26:00,40.9,29.6,30.18,SE,129,0.0,2.0,64,0.00,OVC,OVC,0.00,WeatherDisplay:10.37,2013-11-21 02:26:00,
2013-11-20 21:31:00,40.8,29.2,30.18,ESE,117,0.0,5.0,63,0.00,OVC,OVC,0.00,WeatherDisplay:10.37,2013-11-21 02:31:00,
2013-11-20 21:36:00,40.7,29.5,30.18,ESE,117,0.0,5.0,64,0.00,OVC,OVC,0.00,WeatherDisplay:10.37,2013-11-21 02:36:00,
2013-11-20 21:41:00,40.7,29.5,30.18,ESE,111,0.0,3.0,64,0.00,OVC,OVC,0.00,WeatherDisplay:10.37,2013-11-21 02:41:00,
2013-11-20 21:46:00,40.7,29.4,30.18,ESE,111,1.0,6.0,64,0.00,OVC,OVC,0.00,WeatherDisplay:10.37,2013-11-21 02:46:00,
2013-11-20 21:51:00,40.6,29.7,30.18,SE,139,1.0,3.0,65,0.00,OVC,OVC,0.00,WeatherDisplay:10.37,2013-11-21 02:51:00,
2013-11-20 21:56:00,40.5,29.7,30.17,SE,137,1.0,3.0,65,0.00,OVC,OVC,0.00,WeatherDisplay:10.37,2013-11-21 02:56:00,
2013-11-20 22:01:00,40.5,29.6,30.18,ESE,123,2.0,7.0,65,0.00,OVC,OVC,0.00,WeatherDisplay:10.37,2013-11-21 03:01:00,
2013-11-20 22:06:00,40.5,29.6,30.18,SE,131,0.0,4.0,65,0.00,OVC,OVC,0.00,WeatherDisplay:10.37,2013-11-21 03:06:00,
2013-11-20 22:11:00,40.5,29.7,30.19,SE,127,0.0,3.0,65,0.00,OVC,OVC,0.00,WeatherDisplay:10.37,2013-11-21 03:11:00,
2013-11-20 22:16:00,40.5,30.0,30.19,SE,126,0.0,2.0,66,0.00,OVC,OVC,0.00,WeatherDisplay:10.37,2013-11-21 03:16:00,
2013-11-20 22:21:00,40.5,30.0,30.19,SE,146,2.0,7.0,66,0.00,OVC,OVC,0.00,WeatherDisplay:10.37,2013-11-21 03:21:00,
2013-11-20 22:26:00,40.5,30.0,30.20,SE,136,0.0,3.0,66,0.00,OVC,OVC,0.00,WeatherDisplay:10.37,2013-11-21 03:26:00,
2013-11-20 22:31:00,40.5,30.0,30.19,SE,128,2.0,6.0,66,0.00,OVC,OVC,0.00,WeatherDisplay:10.37,2013-11-21 03:31:00,
2013-11-20 22:36:00,40.5,30.0,30.19,SE,131,0.0,4.0,66,0.00,OVC,OVC,0.00,WeatherDisplay:10.37,2013-11-21 03:36:00,
2013-11-20 22:41:00,40.5,30.4,30.19,SE,133,0.0,3.0,67,0.00,OVC,OVC,0.00,WeatherDisplay:10.37,2013-11-21 03:41:00,
2013-11-20 22:46:00,40.4,30.3,30.19,SE,129,0.0,5.0,67,0.00,OVC,OVC,0.00,WeatherDisplay:10.37,2013-11-21 03:46:00,
2013-11-20 22:51:00,40.4,30.3,30.19,ESE,114,0.0,4.0,67,0.00,OVC,OVC,0.00,WeatherDisplay:10.37,2013-11-21 03:51:00,
2013-11-20 22:56:00,40.4,30.7,30.19,SE,124,1.0,3.0,68,0.00,OVC,OVC,0.00,WeatherDisplay:10.37,2013-11-21 03:56:00,
2013-11-20 23:01:00,40.4,30.7,30.19,SE,129,1.0,4.0,68,0.00,-RA,OVC,0.00,WeatherDisplay:10.37,2013-11-21 04:01:00,
2013-11-20 23:06:00,40.4,30.7,30.20,SE,142,2.0,5.0,68,0.00,-RA,OVC,0.00,WeatherDisplay:10.37,2013-11-21 04:06:00,
2013-11-20 23:11:00,40.4,31.0,30.20,SSE,150,0.0,4.0,69,0.00,-RA,OVC,0.00,WeatherDisplay:10.37,2013-11-21 04:11:00,
2013-11-20 23:16:00,40.4,31.0,30.20,SSE,160,1.0,3.0,69,0.00,-RA,OVC,0.00,WeatherDisplay:10.37,2013-11-21 04:16:00,
2013-11-20 23:21:00,40.3,31.7,30.21,South,176,2.0,5.0,71,0.00,-RA,OVC,0.00,WeatherDisplay:10.37,2013-11-21 04:21:00,
2013-11-20 23:26:00,40.2,32.2,30.21,South,171,0.0,3.0,73,0.00,-RA,OVC,0.00,WeatherDisplay:10.37,2013-11-21 04:26:00,
2013-11-20 23:31:00,39.9,32.6,30.21,SSE,156,0.0,1.0,75,0.00,-RA,OVC,0.00,WeatherDisplay:10.37,2013-11-21 04:31:00,
2013-11-20 23:36:00,39.6,32.7,30.21,SSE,150,0.0,2.0,76,0.00,-RA,OVC,0.00,WeatherDisplay:10.37,2013-11-21 04:36:00,
2013-11-20 23:41:00,39.4,32.8,30.21,SSE,150,0.0,2.0,77,0.00,-RA,OVC,0.00,WeatherDisplay:10.37,2013-11-21 04:41:00,
2013-11-20 23:46:00,39.2,32.9,30.21,SSE,150,0.0,1.0,78,0.00,-RA,OVC,0.00,WeatherDisplay:10.37,2013-11-21 04:46:00,
2013-11-20 23:51:00,39.2,32.9,30.21,SSE,150,0.0,1.0,78,0.00,-RA,OVC,0.00,WeatherDisplay:10.37,2013-11-21 04:51:00,
2013-11-20 23:56:00,39.1,33.1,30.21,SSE,166,0.0,3.0,79,0.01,-RA,OVC,0.01,WeatherDisplay:10.37,2013-11-21 04:56:00,